Regional Weather Roundup
Issued by NWS

Home | Current Version | Previous Version | Text Only | Print | Product List | Glossary On
Versions: 1 2 3 4 5 6 7 8 9 10 11 12 13 14 15 16 17 18 19 20 21 22 23 24 25 26 27 28 29 30 31 32 33 34 35 36 37 38 39 40 41 42 43 44 45 46 47 48 49 50
000
ASUS43 KDTX 260801
RWRMI
MICHIGAN HOURLY REGIONAL WEATHER ROUNDUP
NATIONAL WEATHER SERVICE DETROIT/PONTIAC MI
400 AM EDT THU APR 26 2018

NOTE: "FAIR" INDICATES FEW OR NO CLOUDS BELOW 12,000 FEET WITH NO
SIGNIFICANT WEATHER AND/OR OBSTRUCTION TO VISIBILITY.

MIZ047>049-052>055-059>063-066>070-074>076-081>083-260900-
SOUTHEAST LOWER MICHIGAN

CITY           SKY/WX    TMP DP  RH WIND       PRES   REMARKS
ADRIAN         FAIR      38  37  97 CALM      29.94S FOG
ALMA           FAIR      31  30  96 CALM      29.94S
ANN ARBOR      FAIR      32  32 100 CALM      29.93F
BAD AXE        FAIR      35  29  78 NW5       29.92S WCI  31
CARO           FAIR      30  28  94 CALM      29.91F
DETROIT CITY   FAIR      40  34  79 W5        29.93S
DETROIT        FAIR      40  36  86 W5        29.93F
FLINT          FAIR      32  31  96 CALM      29.92F
GROSSE ILE     FAIR      37  36  96 CALM      29.93S FOG
HILLSDALE      FAIR      36  34  93 CALM      29.92S FOG
HOWELL         FAIR      35  35 100 SW3       29.92F

CITY           SKY/WX    TMP DP  RH WIND       PRES   REMARKS
JACKSON        FAIR      36  35  96 CALM      29.93F
LAMBERTVILLE   FAIR      39  36  88 CALM      29.93S FOG
LANSING        FAIR      37  35  92 CALM      29.94F
LAPEER         FAIR      35  34  96 W5        29.92S WCI  31
MASON          FAIR      36  32  87 CALM      29.94S FOG
MONROE         FAIR      36  34  93 N3        29.93S FOG
MT. CLEMENS    FAIR      38  38 100 W6        29.91S WCI  33
PONTIAC        FAIR      36  35  96 W5        29.91F WCI  32
PORT HOPE        N/A     34  30  85 W5        29.89F WCI  30
PORT HURON     FAIR      34  32  93 CALM      29.92S
TRI CITIES     FAIR      34  29  82 NW5       29.93F WCI  30
MIDLAND        FAIR      30  30 100 CALM      29.93R
TROY           FAIR      40  36  85 W6        29.93F
SAGINAW HB     FAIR      34  32  93 CALM      29.92F
$$
MIZ043>046-050>051-056>058-064>065-071>073-077>080-260900-
SOUTHWEST LOWER MICHIGAN

CITY           SKY/WX    TMP DP  RH WIND       PRES   REMARKS
BATTLE CREEK   FAIR      36  32  85 CALM      29.93F
BENTON HARBOR  FAIR      31  29  92 CALM      29.95S
BIG RAPIDS     FAIR      30  26  87 CALM      29.93S
COLDWATER      FAIR      36  34  94 CALM      29.93S
HOLLAND        FAIR      34  30  85 CALM      29.95S
GRAND RAPIDS   FAIR      36  30  79 CALM      29.94S
IONIA          FAIR      36  32  85 CALM      29.93S
KALAMAZOO      FAIR      36  32  85 CALM      29.94F
LUDINGTON      FAIR      28  28 100 CALM      29.94S
MARSHALL       FAIR      32  31  96 CALM      29.93S
MOUNT PLEASANT FAIR      33  32  95 CALM      29.93S
MUSKEGON       FAIR      33  26  75 CALM      29.95F
SOUTH HAVEN    FAIR      31  29  92 CALM      29.94F
$$
MIZ016>042-260900-
NORTHERN LOWER MICHIGAN

CITY           SKY/WX    TMP DP  RH WIND       PRES   REMARKS
ALPENA         FAIR      31  27  85 W5        29.91S WCI  26
BEAVER ISLAND  FAIR      28  26  95 CALM      29.93F
CADILLAC       FAIR      24  23  98 CALM      29.91F
CHARLEVOIX     FAIR      30  30  97 CALM      29.97S
FRANKFORT      FAIR      28  26  94 CALM      29.94F
GAYLORD        FAIR      27  26  96 CALM      29.91S
GRAYLING       FAIR      23  22  98 CALM      29.91S
HARBOR SPRINGS FAIR      28  26  93 CALM      29.94R
HOUGHTON LAKE  FAIR      30  26  85 NW5       29.92S WCI  25
MANISTEE       FAIR      26  24  92 E3        29.94F
OSCODA         FAIR      32  26  80 CALM      29.90S
PELLSTON       FAIR      25  23  92 CALM      29.93F
ROGERS CITY    FAIR      32  25  77 W5        29.91S WCI  27
TRAVERSE CITY  FAIR      29  26  89 CALM      29.94S
$$
MIZ007>008-015-260900-
EASTERN UPPER MICHIGAN

CITY           SKY/WX    TMP DP  RH WIND       PRES   REMARKS
KINROSS        FAIR      25  24  96 W5        29.90F WCI  19
MACKINAC ISLAN FAIR      30  25  80 CALM      29.91F
NEWBERRY       FAIR      25  24  97 CALM      29.91S
MUNISING         N/A     34  24  67 S9        29.88F WCI  27
$$
MIZ004>006-011>014-085-260900-
CENTRAL UPPER MICHIGAN

CITY           SKY/WX    TMP DP  RH WIND       PRES   REMARKS
MANISTIQUE     FAIR      30  23  75 SW3       29.92F
ESCANABA       FAIR      26  25  96 W3        29.92F
MENOMINEE      FAIR      27  25  92 CALM      29.94F
SAWYER-GWINN   FAIR      28  22  76 S3        29.89F
$$
MIZ001>003-009>011-084-260900-
WESTERN UPPER MICHIGAN

CITY           SKY/WX    TMP DP  RH WIND       PRES   REMARKS
IRON MOUNTAIN  FAIR      28  25  88 CALM      29.89F
HOUGHTON       FAIR      36  18  48 CALM      29.84F
COPPER HARBOR    N/A     38  21  50 VRB7      29.83F WCI  33
IRONWOOD       FAIR      37  24  59 SW5       29.87F WCI  33
$$

ABBREVIATIONS USED IN REMARKS
   TC - TEMPERATURE IN CELSIUS
  WCI - WIND CHILL INDEX
   HX - HEAT INDEX
  VSB - VISIBILITY





USA.gov is the U.S. government's official web portal to all federal, state and local government web resources and services.